Regional Weather Roundup
Issued by NWS

Home | Current Version | Previous Version | Text Only | Print | Product List | Glossary On
Versions: 1 2 3 4 5 6 7 8 9 10 11 12 13 14 15 16 17 18 19 20 21 22 23 24 25 26 27 28 29 30 31 32 33 34 35 36 37 38 39 40 41 42 43 44 45 46 47 48 49 50
579
ASUS43 KDTX 262201
RWRMI
MICHIGAN HOURLY REGIONAL WEATHER ROUNDUP
NATIONAL WEATHER SERVICE DETROIT/PONTIAC MI
600 PM EDT FRI MAY 26 2017

NOTE: "FAIR" INDICATES FEW OR NO CLOUDS BELOW 12,000 FEET WITH NO
SIGNIFICANT WEATHER AND/OR OBSTRUCTION TO VISIBILITY.

MIZ047>049-052>055-059>063-066>070-074>076-081>083-262300-
SOUTHEAST LOWER MICHIGAN

CITY           SKY/WX    TMP DP  RH WIND       PRES   REMARKS
ADRIAN         PTSUNNY   69  54  58 W8        29.87R
ALMA           CLOUDY    68  53  58 S5        29.86S
ANN ARBOR      CLOUDY    68  54  60 NW5       29.86R
BAD AXE        CLOUDY    64  52  65 N3        29.86R
CARO           PTSUNNY   69  53  57 NW3       29.86R
DETROIT CITY   CLOUDY    68  53  58 W7        29.86R
DETROIT        CLOUDY    69  53  56 W8        29.87R
FLINT          CLOUDY    69  51  52 NW5       29.86R
GROSSE ILE     PTSUNNY   62  56  80 S7        29.86R
HILLSDALE      CLOUDY    68  52  56 CALM      29.86S
HOWELL         CLOUDY    66  49  54 CALM      29.87S

CITY           SKY/WX    TMP DP  RH WIND       PRES   REMARKS
JACKSON        CLOUDY    67  54  63 CALM      29.86S
LAMBERTVILLE   CLOUDY    69  56  62 CALM      29.85S
LANSING        CLOUDY    68  50  52 NE5       29.86F
LAPEER         PTSUNNY   66  52  61 SW3       29.87R
MASON          CLOUDY    66  53  61 CALM      29.86F
MONROE         CLOUDY    68  56  66 E6        29.85S
MT. CLEMENS    PTSUNNY   67  54  62 NW8       29.85R
PONTIAC        CLOUDY    66  53  63 NW9       29.86R
PORT HOPE        N/A     59  54  83 CALM      29.85R
PORT HURON     CLOUDY    59  54  82 NE5       29.87R
TRI CITIES     CLOUDY    68  54  60 SW5       29.85R
MIDLAND        CLOUDY    71  52  50 W5        29.84R
TROY           CLOUDY    68  50  52 W5        29.88R
SAGINAW HB     CLOUDY    68  50  52 CALM      29.85R
$$
MIZ043>046-050>051-056>058-064>065-071>073-077>080-262300-
SOUTHWEST LOWER MICHIGAN

CITY           SKY/WX    TMP DP  RH WIND       PRES   REMARKS
BATTLE CREEK   LGT RAIN  67  56  67 S6        29.85S
BENTON HARBOR  CLOUDY    66  53  63 NE3       29.83F
BIG RAPIDS     CLOUDY    69  51  53 S6        29.83F
COLDWATER      CLOUDY    68  55  64 CALM      29.85F
FREMONT        FAIR      69  50  52 W7        29.83S
HOLLAND        PTSUNNY   65  53  65 W6        29.85S
GRAND RAPIDS   CLOUDY    69  54  58 S6        29.84S
IONIA          CLOUDY    67  51  55 SE3       29.84F
KALAMAZOO      CLOUDY    68  54  60 S3        29.85R
LUDINGTON      CLOUDY    53  49  87 W5        29.85R
MARSHALL       PTSUNNY   68  55  62 CALM      29.85S
MOUNT PLEASANT CLOUDY    69  51  51 SW5       29.83S
MUSKEGON       CLOUDY    57  51  80 SW15G21   29.87R
SOUTH HAVEN    MOSUNNY   64  56  75 CALM      29.84F
$$
MIZ016>042-262300-
NORTHERN LOWER MICHIGAN

CITY           SKY/WX    TMP DP  RH WIND       PRES   REMARKS
ALPENA         MOSUNNY   69  53  56 N8        29.84R
BEAVER ISLAND  CLOUDY    63  51  65 W8        29.84F
BELLAIRE       CLOUDY    69  52  54 NW6       29.82F
CADILLAC       CLOUDY    67  49  53 SW5       29.84S
CHARLEVOIX     MOSUNNY   60  51  72 W8        29.87S
FRANKFORT      CLOUDY    64  51  62 N3        29.85S
GAYLORD        CLOUDY    69  47  45 NE5       29.84S
GRAYLING       CLOUDY    69  50  50 CALM      29.84S
HARBOR SPRINGS MOSUNNY   51  48  90 SW8       29.84S
HOUGHTON LAKE  CLOUDY    69  50  50 SW6       29.84R
MANISTEE       CLOUDY    64  52  64 NW6       29.84S
OSCODA         CLOUDY    62  53  73 E5        29.85R
PELLSTON       MOSUNNY   70  52  52 W7        29.83S
ROGERS CITY    SUNNY     65  50  60 CALM      29.85S
TRAVERSE CITY  CLOUDY    61  51  70 NE10      29.82R
$$
MIZ007>008-015-262300-
EASTERN UPPER MICHIGAN

CITY           SKY/WX    TMP DP  RH WIND       PRES   REMARKS
KINROSS        PTSUNNY   70  53  54 SW5       29.82S
MACKINAC ISLAN CLOUDY    63  53  69 W7        29.83F
NEWBERRY       CLOUDY    70  53  54 SW6       29.81F
S. S. MARIE    CLOUDY    71  51  49 NW6       29.81R
MUNISING         N/A     55  49  80 N5        29.80F
$$
MIZ004>006-011>014-085-262300-
CENTRAL UPPER MICHIGAN

CITY           SKY/WX    TMP DP  RH WIND       PRES   REMARKS
MANISTIQUE     SUNNY     63  50  63 SW7       29.83S
ESCANABA       CLOUDY    61  51  70 S8        29.84S
MENOMINEE      CLOUDY    65  53  65 S9        29.84S
SAWYER-GWINN   CLOUDY    70  50  49 S9        29.81S
$$
MIZ001>003-009>011-084-262300-
WESTERN UPPER MICHIGAN

CITY           SKY/WX    TMP DP  RH WIND       PRES   REMARKS
IRON MOUNTAIN  CLOUDY    66  55  67 SE6       29.80F
HOUGHTON       CLOUDY    58  47  66 E8        29.77F
COPPER HARBOR    N/A     61  48  62 VRB7      29.77F
IRONWOOD       CLOUDY    67  54  63 S7        29.76F
$$

ABBREVIATIONS USED IN REMARKS
   TC - TEMPERATURE IN CELSIUS
  WCI - WIND CHILL INDEX
   HX - HEAT INDEX
  VSB - VISIBILITY





USA.gov is the U.S. government's official web portal to all federal, state and local government web resources and services.